{"data":{"norad_id":56453,"epoch":"2026-09-20T13:34:46.939584Z","epoch_age_seconds":106387,"freshness":"FRESH","line1":"1 56453U 23064F   26263.56582106  .00001423  00000+0  12703-3 0  9995","line2":"2 56453  70.0007  13.2259 0003045 272.0761  88.0049 14.98324325184438","mean_motion":14.98324325,"eccentricity":0.0003045,"inclination_deg":70.0007,"raan_deg":13.2259,"arg_perigee_deg":272.0761,"mean_anomaly_deg":88.0049,"bstar":0.00012703,"rev_number":18443,"period_min":96.10736313715,"perigee_km":569.95710139005,"apogee_km":574.1897795483,"semimajor_km":6950.2104404692,"source":"CELESTRAK","updated_at":"2026-09-21T09:00:33.441898Z"}}